Weather History for Avoca, PA

Change the Weather History Date:

Sunday, December 23, 2012

  Actual Average Record
Temperature  
Mean Temperature 32 °F 28 °F  
Max Temperature 36 °F 35 °F 64 °F (1990)
Min Temperature 28 °F 22 °F -2 °F (1960)
Degree Days  
Heating Degree Days 33 37  
Month to date heating degree days 591 764  
Since 1 July heating degree days 1818 2077  
Cooling Degree Days 0 0  
Month to date cooling degree days 0 0  
Year to date cooling degree days 864 580  
Moisture  
Dew Point 20 °F    
Average Humidity 60    
Maximum Humidity 72    
Minimum Humidity 47    
Precipitation  
Precipitation 0.00 in 0.09 in 1.24 in (2004)
Month to date precipitation 3.05 2.07  
Year to date precipitation 37.22 37.65  
Sea Level Pressure  
Sea Level Pressure 29.89 in    
Wind  
Wind Speed 10 mph (WSW)    
Max Wind Speed 20 mph    
Max Gust Speed 25 mph    
Visibility 10 miles    
Events      
T = Trace of Precipitation, MM = Missing Value Source: NWS Daily Summary

Daily Weather History Graph

Daily Weather History Graph

Search for Another Location

Airport:

Trip Planner

Search our weather history database for the weather conditions in past years. The results will help you decide how hot, cold, wet, or windy it might be!

Date:

Astronomy

Dec. 23, 2012 Rise Set
Actual Time 7:26 AM EST 4:38 PM EST
Civil Twilight 6:55 AM EST 5:09 PM EST
Nautical Twilight 6:20 AM EST 5:44 PM EST
Astronomical Twilight 5:46 AM EST 6:17 PM EST
Moon 1:28 PM EST (12/23) 3:05 AM EST (12/23)
Length of Visible Light 10h 14m
Length of Day
9h 11m
Waxing Gibbous, 81% of the Moon is Illuminated
Dec 23
Waxing Gibbous
Dec 28
Full
Jan 4
Last Quarter
Jan 11
New
Jan 18
First Quarter

Hourly Weather History & Observations

Time (EST) Temp. Windchill Dew Point Humidity Pressure Visibility Wind Dir Wind Speed Gust Speed Precip Events Conditions
12:36 AM 33.8 °F 27.0 °F 21.2 °F 60% 29.85 in 10.0 mi West 8.1 mph - N/A   Overcast
12:54 AM 33.1 °F 25.5 °F 21.9 °F 64% 29.88 in 10.0 mi West 9.2 mph - N/A   Overcast
1:22 AM 33.8 °F 24.8 °F 21.2 °F 60% 29.86 in 10.0 mi WNW 12.7 mph - N/A   Overcast
1:52 AM 33.8 °F 23.9 °F 21.2 °F 60% 29.87 in 10.0 mi NW 15.0 mph 19.6 mph N/A   Overcast
1:54 AM 33.1 °F 24.4 °F 21.9 °F 64% 29.90 in 10.0 mi WNW 11.5 mph 20.7 mph N/A   Overcast
2:54 AM 33.1 °F 24.9 °F 21.9 °F 64% 29.90 in 10.0 mi WSW 10.4 mph - N/A   Overcast
3:54 AM 33.1 °F 24.9 °F 21.0 °F 61% 29.89 in 10.0 mi West 10.4 mph - N/A   Overcast
4:54 AM 32.0 °F 23.6 °F 21.9 °F 66% 29.91 in 10.0 mi WSW 10.4 mph - N/A   Overcast
5:54 AM 32.0 °F 25.6 °F 21.9 °F 66% 29.91 in 10.0 mi SW 6.9 mph - N/A   Overcast
6:54 AM 30.9 °F 22.2 °F 21.9 °F 69% 29.92 in 10.0 mi SW 10.4 mph - N/A   Overcast
7:54 AM 30.9 °F 21.7 °F 23.0 °F 72% 29.93 in 10.0 mi SW 11.5 mph - N/A   Overcast
8:54 AM 32.0 °F 23.0 °F 23.0 °F 69% 29.93 in 10.0 mi SW 11.5 mph - N/A   Mostly Cloudy
9:54 AM 33.1 °F 23.0 °F 21.9 °F 64% 29.93 in 10.0 mi SW 15.0 mph 21.9 mph N/A   Mostly Cloudy
10:54 AM 34.0 °F 25.0 °F 21.9 °F 61% 29.91 in 10.0 mi SW 12.7 mph 19.6 mph N/A   Scattered Clouds
11:54 AM 35.1 °F 25.9 °F 21.0 °F 57% 29.88 in 10.0 mi WSW 13.8 mph 23.0 mph N/A   Clear
12:54 PM 35.1 °F 25.5 °F 17.1 °F 48% 29.86 in 10.0 mi SW 15.0 mph 20.7 mph N/A   Clear
1:54 PM 35.1 °F 26.9 °F 17.1 °F 48% 29.84 in 10.0 mi SW 11.5 mph 19.6 mph N/A   Clear
2:54 PM 36.0 °F 28.5 °F 17.1 °F 46% 29.85 in 10.0 mi WSW 10.4 mph - N/A   Clear
3:54 PM 35.1 °F 26.9 °F 17.1 °F 48% 29.85 in 10.0 mi SW 11.5 mph - N/A   Clear
4:54 PM 35.1 °F 28.6 °F 18.0 °F 50% 29.86 in 10.0 mi WSW 8.1 mph - N/A   Clear
5:54 PM 34.0 °F - 18.0 °F 52% 29.87 in 10.0 mi Calm Calm - N/A   Clear
6:54 PM 32.0 °F 28.7 °F 18.0 °F 56% 29.88 in 10.0 mi SSW 3.5 mph - N/A   Clear
7:54 PM 30.9 °F 27.5 °F 18.0 °F 59% 29.90 in 10.0 mi SW 3.5 mph - N/A   Clear
8:54 PM 30.0 °F 24.1 °F 19.0 °F 64% 29.93 in 10.0 mi WSW 5.8 mph - N/A   Clear
9:54 PM 30.0 °F 24.1 °F 19.0 °F 64% 29.94 in 10.0 mi WNW 5.8 mph - N/A   Clear
10:54 PM 32.0 °F 22.1 °F 19.0 °F 59% 29.95 in 10.0 mi West 13.8 mph - N/A   Mostly Cloudy
11:54 PM 32.0 °F 24.8 °F 19.0 °F 59% 29.96 in 10.0 mi WSW 8.1 mph - N/A   Overcast